CW8919 Weather Reports


time (UTC)temp
C
wind
direction
speed
KPH
gust
KPH
rain 1hr
cm
rain 24hr
cm
rain mn
cm
humidity
%
barometer
mb
20180421185932 16 161 0.0 0.0 0.00 7.90 1.32 81 1013.9
20180421184428 16 162 0.0 1.6 0.00 7.90 1.32 81 1013.9
20180421182937 16 163 0.0 4.8 0.00 7.90 1.32 80 1013.9
20180421181433 16 162 0.0 4.8 0.00 7.90 1.32 80 1013.9
20180421175939 16 161 0.0 3.2 0.00 9.19 1.32 80 1013.9
20180421174440 17 160 0.0 6.4 0.00 9.19 1.32 79 1013.8
20180421172924 17 159 1.6 12.9 0.00 9.19 1.32 77 1013.9
20180421171421 17 156 6.4 16.1 0.00 9.19 1.32 76 1013.7
20180421165927 18 153 4.8 12.9 0.00 9.19 1.32 76 1013.9
20180421164426 17 150 1.6 16.1 0.00 9.19 1.32 77 1014.0
20180421162929 17 152 8.0 17.7 0.00 9.19 1.32 77 1014.0
20180421161429 17 152 9.7 17.7 0.00 9.19 1.32 76 1013.8
20180421155935 17 156 8.0 16.1 0.00 9.19 1.32 79 1013.6
20180421154431 17 153 6.4 14.5 0.00 9.19 1.32 80 1013.5
20180421152938 17 152 4.8 17.7 0.00 9.19 1.32 82 1013.5
20180421151433 16 152 1.6 16.1 0.00 9.19 1.32 88 1013.4
20180421145932 16 152 8.0 16.1 0.00 9.19 1.32 90 1013.3
20180421144430 16 165 6.4 16.1 0.00 9.19 1.32 90 1013.3
20180421142932 16 167 9.7 19.3 0.00 9.19 1.32 88 1013.3
20180421141429 16 119 1.6 16.1 0.00 9.19 1.32 86 1013.3
20180421135938 17 114 0.0 11.3 0.00 9.19 1.32 86 1013.2
20180421134438 16 114 4.8 16.1 0.00 9.19 1.32 86 1013.2
20180421132924 16 110 4.8 19.3 0.00 9.19 1.32 87 1013.1
20180421131424 16 100 4.8 22.5 0.00 9.19 1.32 87 1013.1
20180421125942 16 89 6.4 19.3 0.00 9.19 1.32 88 1012.9
20180421124438 16 118 6.4 20.9 0.00 9.19 1.32 89 1013.0
20180421122926 16 100 12.9 24.1 0.00 9.19 1.32 90 1013.2
20180421121423 16 108 12.9 20.9 0.10 9.19 1.32 90 1013.1
20180421115930 16 128 4.8 30.6 0.10 9.19 1.32 91 1013.1
20180421114432 16 91 12.9 35.4 0.10 9.19 1.32 91 1013.5
20180421112937 16 92 16.1 30.6 0.10 9.19 1.32 93 1013.6
20180421111433 16 87 12.9 27.4 0.00 9.09 1.30 93 1013.8
20180421105935 16 79 11.3 24.1 0.10 9.09 1.30 94 1013.8
20180421104435 16 72 1.6 17.7 0.10 9.09 1.30 94 1013.8
20180421102936 16 68 4.8 19.3 0.10 9.09 1.30 94 1013.9
20180421101432 15 46 4.8 16.1 0.30 9.09 1.30 94 1013.7
20180421095941 15 46 1.6 16.1 1.09 8.99 1.27 94 1013.5
20180421094439 15 47 4.8 12.9 2.59 8.99 1.27 94 1013.1
20180421092923 15 48 8.0 17.7 3.81 8.99 1.27 93 1013.4
20180421091423 15 57 0.0 0.0 4.90 8.79 1.24 93 1014.0
20180421085940 15 57 0.0 1.6 4.80 7.80 1.04 92 1014.5
20180421084435 15 57 0.0 1.6 3.71 6.30 0.74 92 1014.6
20180421082923 15 57 0.0 1.6 2.49 5.11 0.51 91 1014.7
20180421081440 15 57 0.0 6.4 1.19 3.81 0.23 90 1014.5
20180421075929 15 57 0.0 8.0 0.30 2.90 0.05 90 1014.3
20180421074430 15 56 0.0 0.0 0.00 2.59 0.00 89 1013.4
20180421072933 15 56 0.0 3.2 0.00 2.59 0.00 89 1012.6
20180421071432 15 56 0.0 0.0 0.00 2.59 0.00 90 1011.7
20180421065933 15 56 0.0 0.0 0.00 2.59 0.00 89 1012.2
20180421064429 15 56 1.6 12.9 0.00 2.59 0.00 89 1011.7
20180421062930 15 55 0.0 16.1 0.00 2.59 0.00 89 1011.6
20180421061429 15 37 3.2 11.3 0.00 2.59 0.00 89 1011.5
20180421055934 15 37 0.0 3.2 0.00 2.59 0.00 89 1012.0
20180421054431 15 33 0.0 8.0 0.00 2.59 0.00 89 1012.3
20180421052939 15 31 4.8 9.7 0.00 2.59 0.00 89 1012.1
20180421051435 15 34 4.8 14.5 0.00 2.59 0.00 89 1012.0
20180421045929 15 38 1.6 22.5 0.00 2.59 0.00 89 1011.8
20180421044427 15 30 3.2 20.9 0.00 2.59 0.00 90 1011.9
20180421042935 15 54 4.8 14.5 0.00 2.59 0.00 90 1012.2
20180421041432 15 56 3.2 16.1 0.00 2.59 0.00 90 1012.7
20180421035940 15 60 3.2 14.5 0.00 2.59 0.00 91 1013.0
20180421034422 15 60 3.2 9.7 0.00 2.59 0.00 91 1012.7
20180421032926 15 61 0.0 4.8 0.00 2.59 0.00 92 1012.5
20180421031427 15 61 0.0 11.3 0.00 2.59 0.00 92 1012.7
20180421025923 15 70 3.2 8.0 0.00 2.59 0.00 93 1013.1
20180421024439 15 69 0.0 6.4 0.00 2.59 0.00 93 1013.8
20180421022923 15 69 0.0 0.0 0.00 2.59 0.00 93 1014.0
20180421021423 15 69 0.0 0.0 0.00 2.59 0.00 93 1014.0
20180421015930 15 69 0.0 8.0 0.00 2.59 0.00 93 1014.1
20180421014425 14 70 0.0 0.0 0.00 2.59 0.00 93 1014.5
20180421012934 14 69 0.0 0.0 0.00 2.59 0.00 93 1014.6
20180421011430 14 70 0.0 0.0 0.00 2.59 0.00 92 1015.1
20180421005929 14 69 0.0 0.0 0.00 2.59 0.00 92 1014.8
20180421004429 14 69 0.0 0.0 0.00 2.59 0.00 92 1015.0
20180421002933 14 70 0.0 0.0 0.00 2.59 0.00 92 1015.2
20180421001431 14 69 0.0 0.0 0.00 2.59 0.00 92 1015.4
20180420235924 15 69 0.0 0.0 0.00 2.59 0.00 91 1015.1
20180420234441 15 69 0.0 0.0 0.00 2.59 0.00 91 1014.9
20180420232924 15 69 0.0 0.0 0.00 2.59 0.00 91 1014.7
20180420231423 15 69 0.0 0.0 0.00 2.59 0.00 91 1014.6
20180420225929 15 69 0.0 0.0 0.00 2.59 0.51 91 1015.1
20180420224425 15 69 0.0 0.0 0.00 2.59 0.51 91 1015.1
20180420222933 15 69 0.0 0.0 0.00 2.59 0.51 91 1015.0
20180420221425 15 69 0.0 0.0 0.00 2.59 0.51 91 1014.7
20180420215933 15 69 0.0 0.0 0.00 2.59 0.51 90 1014.7
20180420214433 15 69 0.0 0.0 0.00 2.59 0.51 90 1014.5
20180420212938 15 69 0.0 1.6 0.00 2.59 0.51 90 1014.7
20180420211434 15 68 0.0 9.7 0.00 2.59 0.51 90 1014.5
20180420205929 15 62 1.6 9.7 0.00 2.59 0.51 90 1014.2
20180420204431 15 44 1.6 8.0 0.00 2.59 0.51 89 1013.9
20180420202935 15 41 0.0 8.0 0.10 2.59 0.51 89 1013.9
20180420201437 15 41 0.0 3.2 0.10 2.59 0.51 88 1013.4
20180420195923 15 41 1.6 9.7 0.10 2.59 0.51 88 1013.2
20180420194439 16 39 3.2 16.1 0.10 2.59 0.51 89 1013.0
20180420192924 16 42 6.4 20.9 0.41 2.49 0.51 89 1012.7
20180420191440 16 43 6.4 16.1 0.99 2.49 0.51 89 1012.5